TimeMDT,TemperatureF,Dew PointF,Humidity,Sea Level PressureIn,VisibilityMPH,Wind Direction,Wind SpeedMPH,Gust SpeedMPH,PrecipitationIn,Events,Conditions,WindDirDegrees,DateUTC
12:53 AM,26.1,19.9,78,30.22,10.0,SSW,8.1,-,N/A,,Clear,200,2013-04-25 06:53:00
1:53 AM,25.0,19.9,81,30.20,10.0,SSW,8.1,-,N/A,,Clear,200,2013-04-25 07:53:00
2:53 AM,27.0,19.9,75,30.18,10.0,SSW,8.1,-,N/A,,Clear,200,2013-04-25 08:53:00
3:53 AM,28.9,21.0,72,30.15,10.0,SSW,9.2,-,N/A,,Clear,200,2013-04-25 09:53:00
4:53 AM,28.9,21.0,72,30.12,10.0,SW,11.5,-,N/A,,Clear,220,2013-04-25 10:53:00
5:53 AM,30.0,21.9,72,30.12,10.0,SW,11.5,-,N/A,,Clear,220,2013-04-25 11:53:00
6:53 AM,36.0,25.0,64,30.10,10.0,SSW,10.4,-,N/A,,Clear,210,2013-04-25 12:53:00
7:53 AM,45.0,26.1,48,30.09,10.0,SSW,12.7,-,N/A,,Clear,210,2013-04-25 13:53:00
8:53 AM,50.0,23.0,35,30.09,10.0,SW,12.7,-,N/A,,Clear,230,2013-04-25 14:53:00
9:53 AM,57.0,21.9,26,30.07,10.0,SW,13.8,-,N/A,,Clear,230,2013-04-25 15:53:00
10:53 AM,61.0,21.9,22,30.05,10.0,SSW,13.8,19.6,N/A,,Clear,210,2013-04-25 16:53:00
11:53 AM,63.0,10.0,13,30.01,10.0,SW,9.2,17.3,N/A,,Clear,220,2013-04-25 17:53:00
12:53 PM,64.9,12.0,13,29.97,10.0,SSW,12.7,-,N/A,,Clear,200,2013-04-25 18:53:00
1:53 PM,64.9,12.0,13,29.95,10.0,South,12.7,19.6,N/A,,Clear,190,2013-04-25 19:53:00
2:53 PM,66.0,16.0,15,29.91,10.0,South,13.8,23.0,N/A,,Clear,180,2013-04-25 20:53:00
3:53 PM,68.0,12.9,12,29.87,10.0,WSW,9.2,18.4,N/A,,Clear,240,2013-04-25 21:53:00
4:53 PM,66.9,10.9,11,29.86,10.0,South,8.1,19.6,N/A,,Clear,180,2013-04-25 22:53:00
5:53 PM,68.0,9.0,10,29.86,10.0,WSW,11.5,17.3,N/A,,Clear,240,2013-04-25 23:53:00
6:53 PM,61.0,12.0,15,29.87,10.0,WSW,5.8,-,N/A,,Clear,240,2013-04-26 00:53:00
7:53 PM,51.1,19.9,29,29.89,10.0,SW,9.2,-,N/A,,Clear,230,2013-04-26 01:53:00
8:53 PM,37.0,19.9,50,29.93,10.0,SW,9.2,-,N/A,,Clear,220,2013-04-26 02:53:00
9:53 PM,37.0,19.9,50,29.93,10.0,WSW,10.4,-,N/A,,Clear,240,2013-04-26 03:53:00
10:53 PM,37.0,21.9,54,29.92,10.0,SW,10.4,-,N/A,,Clear,230,2013-04-26 04:53:00
11:53 PM,35.1,21.0,57,29.93,10.0,WSW,10.4,-,N/A,,Clear,250,2013-04-26 05:53:00